TimeEST,TemperatureF,Dew PointF,Humidity,Sea Level PressureIn,VisibilityMPH,Wind Direction,Wind SpeedMPH,Gust SpeedMPH,PrecipitationIn,Events,Conditions,WindDirDegrees,DateUTC
12:15 AM,31.5,27.9,87,30.31,10.0,Calm,Calm,-,N/A,,Clear,0,2013-02-19 05:15:00
12:35 AM,32.0,27.3,83,30.31,10.0,Calm,Calm,-,N/A,,Clear,0,2013-02-19 05:35:00
12:55 AM,32.7,27.5,81,30.29,10.0,Calm,Calm,-,N/A,,Clear,0,2013-02-19 05:55:00
1:15 AM,34.7,28.4,78,30.29,10.0,Calm,Calm,-,N/A,,Clear,0,2013-02-19 06:15:00
1:35 AM,33.3,28.4,82,30.28,10.0,Calm,Calm,-,N/A,,Clear,0,2013-02-19 06:35:00
1:55 AM,32.0,28.8,88,30.27,10.0,Calm,Calm,-,N/A,,Clear,0,2013-02-19 06:55:00
2:15 AM,30.9,27.9,88,30.25,10.0,Calm,Calm,-,N/A,,Clear,0,2013-02-19 07:15:00
2:35 AM,31.1,28.6,90,30.25,10.0,Calm,Calm,-,N/A,,Clear,0,2013-02-19 07:35:00
2:55 AM,30.4,28.4,92,30.24,10.0,Calm,Calm,-,N/A,,Clear,0,2013-02-19 07:55:00
3:15 AM,30.9,28.9,92,30.24,10.0,Calm,Calm,-,N/A,,Clear,0,2013-02-19 08:15:00
3:35 AM,31.1,29.3,93,30.22,10.0,Calm,Calm,-,N/A,,Mostly Cloudy,0,2013-02-19 08:35:00
3:55 AM,31.8,29.8,92,30.21,10.0,Calm,Calm,-,N/A,,Overcast,0,2013-02-19 08:55:00
4:15 AM,32.2,30.7,94,30.20,10.0,SE,3.5,-,N/A,,Mostly Cloudy,140,2013-02-19 09:15:00
4:35 AM,34.5,32.7,93,30.19,10.0,SE,3.5,-,N/A,,Mostly Cloudy,130,2013-02-19 09:35:00
5:15 AM,35.1,33.3,93,30.18,10.0,SE,3.5,-,N/A,,Clear,140,2013-02-19 10:15:00
5:35 AM,35.1,33.4,94,30.18,10.0,SE,3.5,-,N/A,,Clear,130,2013-02-19 10:35:00
5:55 AM,37.2,35.6,94,30.16,10.0,SE,4.6,-,N/A,,Clear,130,2013-02-19 10:55:00
6:15 AM,36.1,35.1,96,30.16,10.0,Calm,Calm,-,N/A,,Clear,0,2013-02-19 11:15:00
6:35 AM,34.5,33.6,97,30.16,10.0,Calm,Calm,-,N/A,,Clear,0,2013-02-19 11:35:00
6:55 AM,33.8,33.1,97,30.16,10.0,Calm,Calm,-,N/A,,Clear,0,2013-02-19 11:55:00
7:15 AM,34.2,33.6,98,30.16,10.0,Calm,Calm,-,N/A,,Mostly Cloudy,0,2013-02-19 12:15:00
7:35 AM,35.1,34.3,97,30.16,10.0,Calm,Calm,-,N/A,,Mostly Cloudy,0,2013-02-19 12:35:00
7:55 AM,37.8,37.0,97,30.16,10.0,Calm,Calm,-,N/A,,Mostly Cloudy,0,2013-02-19 12:55:00
8:15 AM,45.5,40.3,82,30.16,10.0,Calm,Calm,-,N/A,,Mostly Cloudy,0,2013-02-19 13:15:00
8:35 AM,47.3,41.0,79,30.16,10.0,SE,3.5,-,N/A,,Scattered Clouds,140,2013-02-19 13:35:00
8:55 AM,48.9,41.5,76,30.15,10.0,Calm,Calm,-,N/A,,Clear,0,2013-02-19 13:55:00
9:15 AM,49.6,42.3,76,30.14,10.0,SSE,3.5,-,N/A,,Scattered Clouds,150,2013-02-19 14:15:00
9:35 AM,51.3,43.0,73,30.13,10.0,SSE,4.6,-,N/A,,Scattered Clouds,150,2013-02-19 14:35:00
10:15 AM,54.0,44.2,70,30.11,10.0,SSE,3.5,-,N/A,,Mostly Cloudy,150,2013-02-19 15:15:00
10:35 AM,52.7,47.1,81,30.10,7.0,SSE,4.6,-,N/A,Rain,Light Rain,160,2013-02-19 15:35:00
10:55 AM,55.6,47.1,73,30.09,10.0,SE,6.9,-,N/A,,Scattered Clouds,140,2013-02-19 15:55:00
11:15 AM,57.4,46.8,68,30.08,10.0,South,3.5,-,N/A,,Clear,190,2013-02-19 16:15:00
11:35 AM,55.9,48.7,77,30.08,5.0,South,3.5,-,N/A,Rain,Light Rain,180,2013-02-19 16:35:00
11:55 AM,55.9,48.4,76,30.07,10.0,South,3.5,-,N/A,Rain,Light Rain,180,2013-02-19 16:55:00
12:15 PM,55.4,49.3,80,30.05,10.0,Calm,Calm,-,0.01,Rain,Light Rain,0,2013-02-19 17:15:00
12:35 PM,55.8,49.5,79,30.04,10.0,SSW,4.6,-,0.01,,Scattered Clouds,210,2013-02-19 17:35:00
12:55 PM,56.3,49.6,78,30.03,10.0,SW,4.6,-,0.01,,Mostly Cloudy,220,2013-02-19 17:55:00
1:15 PM,56.7,49.1,76,30.00,10.0,SW,5.8,-,N/A,,Scattered Clouds,220,2013-02-19 18:15:00
1:35 PM,57.4,48.7,73,29.99,10.0,SSW,4.6,-,N/A,,Scattered Clouds,200,2013-02-19 18:35:00
1:55 PM,58.1,48.2,70,29.97,10.0,SSW,6.9,-,N/A,,Mostly Cloudy,210,2013-02-19 18:55:00
2:15 PM,58.1,48.4,70,29.96,10.0,SSW,6.9,-,N/A,Rain,Light Rain,210,2013-02-19 19:15:00
2:35 PM,59.0,49.3,70,29.95,10.0,SW,9.2,16.1,N/A,,Scattered Clouds,220,2013-02-19 19:35:00
2:55 PM,58.1,47.3,67,29.94,10.0,SW,8.1,17.3,N/A,,Mostly Cloudy,220,2013-02-19 19:55:00
3:15 PM,57.6,46.8,67,29.94,10.0,SW,13.8,23.0,N/A,,Overcast,230,2013-02-19 20:15:00
3:35 PM,57.9,46.6,66,29.93,10.0,SW,11.5,20.7,N/A,,Overcast,220,2013-02-19 20:35:00
4:15 PM,54.0,50.4,88,29.93,3.0,SSW,6.9,-,N/A,,Overcast,210,2013-02-19 21:15:00
4:35 PM,54.3,50.9,88,29.91,10.0,SSW,6.9,-,N/A,,Overcast,200,2013-02-19 21:35:00
4:55 PM,55.2,50.9,85,29.91,10.0,SSW,8.1,-,N/A,,Overcast,210,2013-02-19 21:55:00
5:15 PM,55.6,51.1,85,29.90,10.0,SSW,8.1,-,N/A,,Overcast,210,2013-02-19 22:15:00
5:35 PM,55.8,51.3,85,29.90,10.0,SSW,8.1,18.4,N/A,,Overcast,210,2013-02-19 22:35:00
5:55 PM,55.9,51.4,85,29.90,10.0,SW,10.4,17.3,N/A,,Overcast,220,2013-02-19 22:55:00
6:15 PM,55.9,51.4,85,29.91,10.0,SW,11.5,17.3,N/A,,Overcast,230,2013-02-19 23:15:00
7:55 PM,55.4,49.3,80,29.94,10.0,WSW,12.7,23.0,N/A,,Overcast,250,2013-02-20 00:55:00
8:15 PM,54.1,46.8,76,29.95,10.0,WSW,15.0,23.0,N/A,,Scattered Clouds,250,2013-02-20 01:15:00
8:35 PM,52.9,46.6,79,29.95,10.0,WSW,11.5,17.3,N/A,,Scattered Clouds,250,2013-02-20 01:35:00
8:55 PM,52.7,45.0,75,29.96,10.0,West,13.8,17.3,N/A,,Mostly Cloudy,270,2013-02-20 01:55:00
9:15 PM,51.8,43.3,73,29.97,10.0,West,8.1,18.4,N/A,,Scattered Clouds,260,2013-02-20 02:15:00
9:35 PM,51.4,43.7,75,29.98,10.0,West,12.7,18.4,N/A,,Mostly Cloudy,260,2013-02-20 02:35:00
10:15 PM,50.4,43.9,78,29.98,10.0,West,9.2,16.1,N/A,,Scattered Clouds,260,2013-02-20 03:15:00
10:35 PM,49.5,44.1,82,29.98,10.0,WSW,5.8,-,N/A,,Clear,250,2013-02-20 03:35:00
10:55 PM,48.4,44.1,85,29.98,10.0,WSW,5.8,-,N/A,,Clear,250,2013-02-20 03:55:00
11:15 PM,47.5,44.1,88,29.97,10.0,WSW,6.9,-,N/A,,Scattered Clouds,240,2013-02-20 04:15:00
11:35 PM,46.6,43.7,90,29.97,10.0,SW,4.6,-,N/A,,Scattered Clouds,230,2013-02-20 04:35:00
11:55 PM,46.0,43.7,92,29.97,10.0,WSW,5.8,-,N/A,,Clear,240,2013-02-20 04:55:00